STARLINK-3072, 49153

Orbit data source: Space-Track

STARLINK-3072, 49153 is a payload satellite owned by SpaceX/Seattle (US) in LEO that was launched on Tue, 14 Sep 2021 UTC via an FALCON 9 launch vehicle from the Air Force Western Test Range (AFWTR). Payload-class satellites include a variety of spacecraft equipped with specific instruments for various scientific and technological missions. These include communications satellites like Starlink; space stations such as the ISS; scientific satellites like the Hubble; Earth observation satellites from companies like Planet Labs, Umbra, and HawkEye 360; GPS; miniature CubeSats for education and research; and military/defense satellites.

Loading next visibility...
Identifier
49153, 2021-082Z
Orbit
LEO
Country
Flag of USUS
Related business
Manufacturer
SpaceX/Seattle
Mission
Operational Commercial Communications
Bus & Motor
STARLINK, Unknown motor
Mass
297 kg wet, ~275 kg dry
Launch date (UTC)
2021-09-14 (5 years ago)
Launch vehicle
FALCON 9
Launch site
Air Force Western Test Range (AFWTR)
Object type
Payload
Rocket body
Debris
Shape & HBR
Box + 1 Pan, 10.1 m
Radar Cross Section
13.562 m², Large (>1 m²)

Expand to show TLE details & history
Last TLE update: 18 hours ago

TLE from 18 hours ago
0 STARLINK-3072
1 49153U 21082Z   26125.38019035  .00000018  00000-0  92843-5 0  9990
2 49153  69.9988 111.5191 0003340 268.4677  91.6100 14.98333477256663
Epoch: 2026-05-05T09:07Z
TLE epoch observation values (Epoch: 2026-05-05T09:07:28.446Z)
Latitude
0.00004°
Longitude
111.39472°
Altitude
574.535 km
Speed
7.574 km/s
True Right ascension
07h 26m 04s
True Declination
0° 00' 00"
Sunlit
Object was in daylight at epoch
Visualization orbit readout
Latitude
Unknown
Longitude
Unknown
Altitude
Unknown
Speed
Unknown
Apparent Right ascension
Unknown
Apparent Declination
Unknown
Sunlit
N/A
Visualization observer readout
Local Sidereal Time
10:39:00
Azimuth
Unknown
Elevation
Unknown
Doppler factor
Unknown
Orbital elements
Apogee altitude
572.314 km
Perigee altitude
567.673 km
Semi-major axis
6,948.131 km
Eccentricity
0.00033
Inclination
69.9988°
RAAN
111.5191°
Arg. of periapsis
268.4677°
True anomaly
91.64826°
Mean anomaly
91.61°
Eccentric anomaly
91.62913°
Mean motion
3.7475 °/min
Orbital period
96.06 mins
BSTAR
0.0000092843
Loading maneuver chart data...
Computing Atmospheric mass density...

Documentation

Showing up to 5 results
|